EN

Hourly Weather Laguszow

Today, 29 July, Thursday

Time Temperature Precipitation Wind Pressure Humidity
00:00 +20°C° 1.6 mm 4 mps 743 mmHg 92%
01:00 +19°C° 1.6 mm 5 mps 744 mmHg 96%
02:00 +19°C° 0.6 mm 4 mps 744 mmHg 96%
03:00 +19°C° 0.6 mm 4 mps 744 mmHg 96%
04:00 +19°C° 0.6 mm 3 mps 744 mmHg 96%
05:00 +19°C° 0 mm 4 mps 744 mmHg 92%
06:00 +20°C° 0 mm 4 mps 744 mmHg 88%
07:00 +21°C° 0 mm 4 mps 745 mmHg 83%
08:00 +22°C° 0 mm 4 mps 745 mmHg 74%
09:00 +25°C° 0 mm 4 mps 745 mmHg 65%
10:00 +26°C° 0 mm 4 mps 745 mmHg 56%
11:00 +27°C° 0 mm 4 mps 745 mmHg 52%
12:00 +28°C° 0 mm 4 mps 745 mmHg 49%
13:00 +29°C° 0 mm 4 mps 745 mmHg 45%
14:00 +28°C° 0 mm 5 mps 745 mmHg 46%
15:00 +28°C° 0 mm 5 mps 745 mmHg 48%
16:00 +27°C° 0 mm 5 mps 745 mmHg 50%
17:00 +26°C° 0 mm 4 mps 744 mmHg 56%
18:00 +24°C° 0 mm 3 mps 744 mmHg 62%
19:00 +23°C° 0 mm 2 mps 744 mmHg 69%
20:00 +21°C° 0 mm 2 mps 745 mmHg 70%
21:00 +20°C° 0 mm 2 mps 745 mmHg 71%
22:00 +19°C° 0 mm 2 mps 745 mmHg 73%
23:00 +19°C° 0 mm 2 mps 745 mmHg 73%

Tomorrow, 30 July, Friday

Time Temperature Precipitation Wind Pressure Humidity
00:00 +18°C° 0 mm 2 mps 745 mmHg 73%
01:00 +18°C° 0 mm 2 mps 745 mmHg 74%
02:00 +17°C° 0 mm 2 mps 745 mmHg 74%
03:00 +17°C° 0 mm 2 mps 745 mmHg 73%
04:00 +16°C° 0 mm 2 mps 745 mmHg 73%
05:00 +18°C° 0 mm 2 mps 745 mmHg 69%
06:00 +20°C° 0 mm 2 mps 745 mmHg 65%
07:00 +21°C° 0 mm 3 mps 745 mmHg 60%
08:00 +24°C° 0 mm 3 mps 745 mmHg 55%
09:00 +26°C° 0 mm 4 mps 744 mmHg 50%
10:00 +27°C° 0 mm 4 mps 744 mmHg 45%
11:00 +28°C° 0 mm 5 mps 744 mmHg 42%
12:00 +29°C° 0 mm 5 mps 744 mmHg 39%
13:00 +30°C° 0 mm 6 mps 743 mmHg 36%
14:00 +30°C° 0 mm 5 mps 743 mmHg 37%
15:00 +30°C° 0 mm 5 mps 743 mmHg 37%
16:00 +30°C° 0 mm 5 mps 743 mmHg 38%
17:00 +28°C° 0 mm 4 mps 742 mmHg 45%
18:00 +26°C° 0 mm 3 mps 742 mmHg 52%
19:00 +24°C° 0 mm 2 mps 742 mmHg 58%
20:00 +23°C° 0 mm 1 mps 742 mmHg 59%
21:00 +22°C° 0 mm 1 mps 743 mmHg 60%
22:00 +21°C° 0 mm 1 mps 743 mmHg 61%
23:00 +21°C° 0 mm 1 mps 743 mmHg 62%

Day after tomorrow, 31 July, Saturday

Time Temperature Precipitation Wind Pressure Humidity
00:00 +20°C° 0 mm 1 mps 743 mmHg 62%
01:00 +20°C° 0 mm 1 mps 743 mmHg 63%
02:00 +20°C° 0 mm 1 mps 742 mmHg 64%
03:00 +19°C° 0 mm 2 mps 742 mmHg 65%
04:00 +18°C° 0 mm 2 mps 742 mmHg 67%
05:00 +20°C° 0 mm 2 mps 742 mmHg 65%
06:00 +23°C° 0 mm 2 mps 742 mmHg 64%
07:00 +24°C° 0 mm 2 mps 742 mmHg 63%
08:00 +26°C° 0 mm 3 mps 742 mmHg 59%
09:00 +28°C° 0 mm 3 mps 742 mmHg 54%
10:00 +30°C° 0 mm 4 mps 742 mmHg 50%
11:00 +27°C° 0.8 mm 4 mps 742 mmHg 62%
12:00 +25°C° 0.8 mm 4 mps 742 mmHg 74%
13:00 +21°C° 0.8 mm 4 mps 742 mmHg 86%
14:00 +21°C° 0.4 mm 4 mps 742 mmHg 84%
15:00 +22°C° 0.4 mm 4 mps 742 mmHg 81%
16:00 +23°C° 0.4 mm 4 mps 742 mmHg 78%
17:00 +22°C° 0.2 mm 3 mps 742 mmHg 82%
18:00 +21°C° 0.2 mm 3 mps 742 mmHg 85%
19:00 +21°C° 0.2 mm 3 mps 742 mmHg 89%
20:00 +20°C° 0 mm 3 mps 742 mmHg 88%
21:00 +19°C° 0 mm 2 mps 742 mmHg 88%
22:00 +19°C° 0 mm 2 mps 743 mmHg 88%
23:00 +18°C° 0 mm 2 mps 743 mmHg 87%

1 August, Sunday

Time Temperature Precipitation Wind Pressure Humidity
00:00 +18°C° 0 mm 2 mps 743 mmHg 86%
01:00 +17°C° 0 mm 2 mps 743 mmHg 85%
02:00 +17°C° 0 mm 2 mps 743 mmHg 84%
03:00 +16°C° 0 mm 2 mps 743 mmHg 83%
04:00 +16°C° 0 mm 1 mps 743 mmHg 83%
05:00 +18°C° 0 mm 1 mps 743 mmHg 76%
06:00 +20°C° 0 mm 1 mps 744 mmHg 70%
07:00 +21°C° 0 mm 1 mps 744 mmHg 63%
08:00 +23°C° 0 mm 1 mps 744 mmHg 58%
09:00 +25°C° 0 mm 1 mps 744 mmHg 53%
10:00 +26°C° 0 mm 1 mps 744 mmHg 48%
11:00 +26°C° 0 mm 1 mps 743 mmHg 51%
12:00 +25°C° 0 mm 1 mps 743 mmHg 55%
13:00 +24°C° 0 mm 2 mps 743 mmHg 59%
14:00 +25°C° 0.2 mm 2 mps 742 mmHg 59%
15:00 +25°C° 0.2 mm 3 mps 741 mmHg 60%
16:00 +25°C° 0.2 mm 4 mps 741 mmHg 60%
17:00 +22°C° 6.5 mm 4 mps 740 mmHg 72%
18:00 +20°C° 6.5 mm 4 mps 740 mmHg 83%
19:00 +18°C° 6.5 mm 4 mps 740 mmHg 95%
20:00 +18°C° 0.2 mm 4 mps 740 mmHg 95%
21:00 +18°C° 0.2 mm 3 mps 740 mmHg 96%
22:00 +17°C° 0.2 mm 2 mps 740 mmHg 96%
23:00 +17°C° 0 mm 2 mps 740 mmHg 96%

2 August, Monday

Time Temperature Precipitation Wind Pressure Humidity
00:00 +17°C° 0 mm 2 mps 740 mmHg 97%
01:00 +17°C° 0 mm 2 mps 739 mmHg 97%
02:00 +17°C° 1.3 mm 3 mps 739 mmHg 97%
03:00 +17°C° 1.3 mm 4 mps 740 mmHg 97%
04:00 +15°C° 1.3 mm 6 mps 740 mmHg 97%
05:00 +15°C° 1.2 mm 6 mps 740 mmHg 96%
06:00 +15°C° 1.2 mm 6 mps 741 mmHg 95%
07:00 +15°C° 1.2 mm 6 mps 741 mmHg 95%
08:00 +16°C° 0.3 mm 6 mps 742 mmHg 86%
09:00 +19°C° 0.3 mm 5 mps 742 mmHg 77%
10:00 +21°C° 0.3 mm 5 mps 742 mmHg 68%
11:00 +22°C° 0.4 mm 6 mps 743 mmHg 65%
12:00 +22°C° 0.4 mm 6 mps 743 mmHg 62%
13:00 +23°C° 0.4 mm 6 mps 743 mmHg 59%
14:00 +23°C° 0.3 mm 6 mps 743 mmHg 61%
15:00 +22°C° 0.3 mm 5 mps 743 mmHg 63%
16:00 +22°C° 0.3 mm 5 mps 743 mmHg 65%
17:00 +21°C° 0.2 mm 4 mps 743 mmHg 71%
18:00 +19°C° 0.2 mm 4 mps 744 mmHg 77%
19:00 +18°C° 0.2 mm 3 mps 744 mmHg 83%
20:00 +17°C° 0 mm 3 mps 744 mmHg 83%
21:00 +16°C° 0 mm 3 mps 744 mmHg 83%
22:00 +16°C° 0 mm 3 mps 744 mmHg 84%
23:00 +14°C° 0 mm 3 mps 745 mmHg 84%

3 August, Tuesday

Time Temperature Precipitation Wind Pressure Humidity
00:00 +14°C° 0 mm 3 mps 745 mmHg 85%
01:00 +13°C° 0 mm 3 mps 745 mmHg 85%
02:00 +14°C° 0 mm 3 mps 745 mmHg 84%
03:00 +14°C° 0 mm 3 mps 745 mmHg 82%
04:00 +14°C° 0 mm 3 mps 746 mmHg 80%
05:00 +16°C° 0 mm 3 mps 746 mmHg 76%
06:00 +17°C° 0 mm 3 mps 746 mmHg 72%
07:00 +18°C° 0 mm 3 mps 747 mmHg 68%
08:00 +19°C° 0 mm 3 mps 747 mmHg 61%
09:00 +21°C° 0 mm 4 mps 747 mmHg 55%
10:00 +22°C° 0 mm 4 mps 747 mmHg 48%
11:00 +23°C° 0 mm 4 mps 747 mmHg 46%
12:00 +23°C° 0 mm 4 mps 747 mmHg 43%
13:00 +25°C° 0 mm 5 mps 747 mmHg 41%
14:00 +25°C° 0 mm 4 mps 746 mmHg 41%
15:00 +25°C° 0 mm 4 mps 746 mmHg 42%
16:00 +25°C° 0 mm 3 mps 746 mmHg 42%
17:00 +24°C° 0 mm 3 mps 746 mmHg 47%
18:00 +23°C° 0 mm 2 mps 746 mmHg 52%
19:00 +21°C° 0 mm 2 mps 745 mmHg 56%
20:00 +20°C° 0.2 mm 2 mps 746 mmHg 64%
21:00 +19°C° 0.2 mm 3 mps 746 mmHg 71%
22:00 +18°C° 0.2 mm 3 mps 746 mmHg 78%
23:00 +17°C° 0.4 mm 3 mps 746 mmHg 82%
Show more